| time (UTC) | temp C | wind direction | speed KPH | gust KPH | rain 1hr cm | rain 24hr cm | rain mn cm | humidity % | barometer mb |
| 20260509083125 | 16 | 30 | 12.9 | 16.1 | 0.00 | 0.00 | 0.00 | 77 | 1013.7 |
| 20260509082625 | 16 | 24 | 12.9 | 16.1 | 0.00 | 0.00 | 0.00 | 78 | 1013.7 |
| 20260509082125 | 16 | 23 | 14.5 | 17.7 | 0.00 | 0.00 | 0.00 | 80 | 1013.7 |
| 20260509081626 | 16 | 26 | 14.5 | 17.7 | 0.00 | 0.00 | 0.00 | 80 | 1013.7 |
| 20260509081131 | 16 | 46 | 12.9 | 16.1 | 0.00 | 0.00 | 0.00 | 80 | 1013.7 |
| 20260509081125 | 16 | 37 | 14.5 | 17.7 | 0.00 | 0.00 | 0.00 | 80 | 1013.8 |
| 20260509080125 | 15 | 41 | 9.7 | 16.1 | 0.00 | 0.00 | 0.00 | 85 | 1013.8 |
| 20260509075628 | 15 | 54 | 8.0 | 14.5 | 0.00 | 0.00 | 0.00 | 86 | 1014.0 |
| 20260509075623 | 15 | 58 | 8.0 | 14.5 | 0.00 | 0.00 | 0.00 | 86 | 1013.9 |
| 20260509074623 | 15 | 44 | 9.7 | 17.7 | 0.00 | 0.00 | 0.00 | 84 | 1014.0 |
| 20260509074124 | 15 | 32 | 9.7 | 17.7 | 0.00 | 0.00 | 0.00 | 84 | 1014.1 |
| 20260509073623 | 15 | 35 | 9.7 | 16.1 | 0.00 | 0.00 | 0.00 | 86 | 1014.0 |
| 20260509073124 | 15 | 63 | 9.7 | 14.5 | 0.00 | 0.00 | 0.00 | 87 | 1014.1 |
| 20260509072732 | 15 | 48 | 12.9 | 17.7 | 0.00 | 0.00 | 0.00 | 86 | 1014.0 |
| 20260509072627 | 15 | 68 | 12.9 | 17.7 | 0.00 | 0.00 | 0.00 | 86 | 1014.0 |
| 20260509072623 | 15 | 22 | 11.3 | 17.7 | 0.00 | 0.00 | 0.00 | 86 | 1014.0 |
| 20260509071122 | 15 | 62 | 14.5 | 19.3 | 0.00 | 0.00 | 0.00 | 86 | 1014.0 |
| 20260509070621 | 15 | 49 | 14.5 | 19.3 | 0.00 | 0.00 | 0.00 | 86 | 1014.1 |
| 20260509070121 | 15 | 56 | 14.5 | 20.9 | 0.00 | 0.00 | 0.00 | 86 | 1014.1 |
| 20260509065621 | 15 | 62 | 14.5 | 20.9 | 0.00 | 0.00 | 0.00 | 86 | 1014.2 |
| 20260509065121 | 15 | 68 | 12.9 | 19.3 | 0.00 | 0.00 | 0.00 | 86 | 1014.3 |
| 20260509064621 | 15 | 92 | 14.5 | 19.3 | 0.00 | 0.00 | 0.00 | 86 | 1014.3 |
| 20260509064125 | 15 | 101 | 12.9 | 17.7 | 0.00 | 0.00 | 0.00 | 85 | 1014.3 |
| 20260509064121 | 15 | 91 | 12.9 | 17.7 | 0.00 | 0.00 | 0.00 | 86 | 1014.3 |
| 20260509063121 | 15 | 92 | 12.9 | 17.7 | 0.00 | 0.00 | 0.00 | 85 | 1014.2 |
| 20260509062621 | 15 | 102 | 11.3 | 17.7 | 0.00 | 0.00 | 0.00 | 85 | 1014.2 |
| 20260509062121 | 15 | 71 | 12.9 | 17.7 | 0.00 | 0.00 | 0.00 | 84 | 1014.2 |
| 20260509061619 | 15 | 92 | 12.9 | 19.3 | 0.00 | 0.00 | 0.00 | 83 | 1014.2 |
| 20260509061119 | 15 | 91 | 14.5 | 19.3 | 0.00 | 0.00 | 0.00 | 82 | 1014.3 |
| 20260509060619 | 15 | 90 | 16.1 | 19.3 | 0.00 | 0.00 | 0.00 | 81 | 1014.3 |
| 20260509060119 | 16 | 101 | 17.7 | 19.3 | 0.00 | 0.00 | 0.00 | 80 | 1014.2 |
| 20260509055619 | 16 | 91 | 16.1 | 19.3 | 0.00 | 0.00 | 0.00 | 78 | 1014.3 |
| 20260509055120 | 16 | 92 | 16.1 | 19.3 | 0.00 | 0.00 | 0.00 | 77 | 1014.3 |
| 20260509054623 | 17 | 101 | 17.7 | 20.9 | 0.00 | 0.00 | 0.00 | 75 | 1014.5 |
| 20260509054619 | 16 | 98 | 16.1 | 19.3 | 0.00 | 0.00 | 0.00 | 77 | 1014.4 |
| 20260509053619 | 17 | 89 | 19.3 | 20.9 | 0.00 | 0.00 | 0.00 | 74 | 1014.4 |
| 20260509053116 | 17 | 84 | 19.3 | 20.9 | 0.00 | 0.00 | 0.00 | 72 | 1014.4 |
| 20260509052614 | 17 | 83 | 19.3 | 22.5 | 0.00 | 0.00 | 0.00 | 72 | 1014.4 |
| 20260509052115 | 17 | 134 | 17.7 | 22.5 | 0.00 | 0.00 | 0.00 | 71 | 1014.4 |
| 20260509051615 | 17 | 134 | 16.1 | 20.9 | 0.00 | 0.00 | 0.00 | 73 | 1014.4 |
| 20260509051120 | 17 | 69 | 17.7 | 22.5 | 0.00 | 0.00 | 0.00 | 74 | 1014.4 |
| 20260509051116 | 17 | 51 | 16.1 | 20.9 | 0.00 | 0.00 | 0.00 | 74 | 1014.5 |
| 20260509050115 | 18 | 64 | 19.3 | 22.5 | 0.00 | 0.00 | 0.00 | 73 | 1014.4 |
| 20260509045619 | 18 | 78 | 19.3 | 24.1 | 0.00 | 0.00 | 0.00 | 74 | 1014.3 |
| 20260509045615 | 18 | 80 | 19.3 | 24.1 | 0.00 | 0.00 | 0.00 | 72 | 1014.3 |
| 20260509044615 | 18 | 71 | 19.3 | 24.1 | 0.00 | 0.00 | 0.00 | 74 | 1014.3 |
| 20260509044112 | 18 | 80 | 17.7 | 24.1 | 0.00 | 0.00 | 0.00 | 73 | 1014.2 |
| 20260509043612 | 18 | 65 | 17.7 | 22.5 | 0.00 | 0.00 | 0.00 | 71 | 1014.2 |
| 20260509043113 | 18 | 82 | 17.7 | 22.5 | 0.00 | 0.00 | 0.00 | 72 | 1014.2 |
| 20260509042612 | 18 | 80 | 19.3 | 22.5 | 0.00 | 0.00 | 0.00 | 70 | 1014.1 |
| 20260509042113 | 18 | 34 | 19.3 | 22.5 | 0.00 | 0.00 | 0.00 | 69 | 1014.1 |
| 20260509041613 | 18 | 49 | 19.3 | 22.5 | 0.00 | 0.00 | 0.00 | 69 | 1014.0 |
| 20260509041110 | 18 | 5 | 17.7 | 22.5 | 0.00 | 0.00 | 0.00 | 70 | 1014.0 |
| 20260509040611 | 18 | 37 | 17.7 | 20.9 | 0.00 | 0.00 | 0.00 | 72 | 1014.0 |
| 20260509040111 | 18 | 42 | 14.5 | 20.9 | 0.00 | 0.00 | 0.00 | 73 | 1013.9 |
| 20260509035611 | 18 | 33 | 11.3 | 14.5 | 0.00 | 0.00 | 0.00 | 78 | 1014.0 |
| 20260509035111 | 18 | 57 | 11.3 | 12.9 | 0.00 | 0.00 | 0.00 | 77 | 1014.0 |
| 20260509034611 | 18 | 57 | 11.3 | 14.5 | 0.00 | 0.00 | 0.00 | 75 | 1014.0 |
| 20260509034111 | 18 | 62 | 12.9 | 14.5 | 0.00 | 0.00 | 0.00 | 73 | 1013.9 |
| 20260509033611 | 18 | 62 | 11.3 | 14.5 | 0.00 | 0.00 | 0.00 | 72 | 1013.9 |
| 20260509033111 | 18 | 57 | 11.3 | 16.1 | 0.00 | 0.00 | 0.00 | 72 | 1013.9 |
| 20260509032611 | 19 | 64 | 12.9 | 16.1 | 0.00 | 0.00 | 0.00 | 71 | 1013.8 |
| 20260509032111 | 19 | 74 | 12.9 | 16.1 | 0.00 | 0.00 | 0.00 | 71 | 1013.8 |
| 20260509031611 | 19 | 89 | 14.5 | 16.1 | 0.00 | 0.00 | 0.00 | 73 | 1013.7 |
| 20260509031110 | 19 | 95 | 12.9 | 16.1 | 0.00 | 0.00 | 0.00 | 73 | 1013.7 |
| 20260509030612 | 19 | 98 | 11.3 | 14.5 | 0.00 | 0.00 | 0.00 | 74 | 1013.7 |
| 20260509030111 | 19 | 103 | 11.3 | 12.9 | 0.00 | 0.00 | 0.00 | 74 | 1013.7 |
| 20260509025611 | 19 | 103 | 11.3 | 12.9 | 0.00 | 0.00 | 0.00 | 75 | 1013.6 |
| 20260509025115 | 19 | 107 | 9.7 | 11.3 | 0.00 | 0.00 | 0.00 | 75 | 1013.6 |
| 20260509025111 | 19 | 108 | 9.7 | 12.9 | 0.00 | 0.00 | 0.00 | 75 | 1013.6 |
| 20260509024111 | 19 | 108 | 8.0 | 11.3 | 0.00 | 0.00 | 0.00 | 75 | 1013.6 |
| 20260509023611 | 19 | 102 | 8.0 | 11.3 | 0.00 | 0.00 | 0.00 | 75 | 1013.6 |
| 20260509023111 | 19 | 102 | 6.4 | 9.7 | 0.00 | 0.00 | 0.00 | 75 | 1013.6 |
| 20260509022610 | 19 | 105 | 6.4 | 11.3 | 0.00 | 0.00 | 0.00 | 76 | 1013.5 |
| 20260509022115 | 18 | 104 | 3.2 | 6.4 | 0.00 | 0.00 | 0.00 | 77 | 1013.5 |
| 20260509022111 | 19 | 105 | 4.8 | 11.3 | 0.00 | 0.00 | 0.00 | 76 | 1013.5 |
| 20260509021111 | 18 | 94 | 1.6 | 6.4 | 0.00 | 0.00 | 0.00 | 77 | 1013.6 |
| 20260509020610 | 18 | 109 | 1.6 | 4.8 | 0.00 | 0.00 | 0.00 | 77 | 1013.5 |
| 20260509020108 | 19 | 109 | 3.2 | 12.9 | 0.00 | 0.00 | 0.00 | 77 | 1013.7 |
| 20260509015608 | 19 | 109 | 4.8 | 12.9 | 0.00 | 0.00 | 0.00 | 76 | 1013.5 |
| 20260509015109 | 20 | 92 | 6.4 | 12.9 | 0.00 | 0.00 | 0.00 | 73 | 1013.5 |
| 20260509015105 | 20 | 109 | 6.4 | 12.9 | 0.00 | 0.00 | 0.00 | 74 | 1013.4 |
| 20260509014104 | 20 | 94 | 4.8 | 11.3 | 0.00 | 0.00 | 0.00 | 73 | 1013.4 |
| 20260509013608 | 20 | 74 | 4.8 | 9.7 | 0.00 | 0.00 | 0.00 | 73 | 1013.5 |
| 20260509013604 | 20 | 86 | 4.8 | 11.3 | 0.00 | 0.00 | 0.00 | 73 | 1013.4 |
| 20260509013212 | 20 | 71 | 4.8 | 9.7 | 0.00 | 0.00 | 0.00 | 72 | 1013.5 |
| 20260509012712 | 20 | 67 | 3.2 | 8.0 | 0.00 | 0.00 | 0.00 | 73 | 1013.4 |
| 20260509011605 | 20 | 67 | 3.2 | 8.0 | 0.00 | 0.00 | 0.00 | 73 | 1013.4 |
| 20260509011104 | 20 | 77 | 3.2 | 6.4 | 0.00 | 0.00 | 0.00 | 73 | 1013.5 |
| 20260509010604 | 20 | 84 | 4.8 | 6.4 | 0.00 | 0.00 | 0.00 | 74 | 1013.5 |
| 20260509010104 | 20 | 86 | 6.4 | 11.3 | 0.00 | 0.00 | 0.00 | 73 | 1013.2 |
| 20260509005605 | 20 | 105 | 8.0 | 11.3 | 0.00 | 0.00 | 0.00 | 73 | 1013.4 |
| 20260509005104 | 20 | 102 | 8.0 | 11.3 | 0.00 | 0.00 | 0.00 | 71 | 1013.4 |
| 20260509004604 | 20 | 114 | 4.8 | 11.3 | 0.00 | 0.00 | 0.00 | 70 | 1013.4 |
| 20260509004104 | 21 | 108 | 3.2 | 9.7 | 0.00 | 0.00 | 0.00 | 69 | 1013.6 |
| 20260509003608 | 22 | 43 | 0.0 | 3.2 | 0.00 | 0.00 | 0.00 | 66 | 1013.5 |
| 20260509003604 | 21 | 105 | 0.0 | 4.8 | 0.00 | 0.00 | 0.00 | 67 | 1013.5 |
| 20260509002604 | 22 | 43 | 0.0 | 3.2 | 0.00 | 0.00 | 0.00 | 66 | 1013.4 |
| 20260509002102 | 22 | 43 | 0.0 | 3.2 | 0.00 | 0.00 | 0.00 | 67 | 1013.4 |
| 20260509001606 | 22 | 43 | 1.6 | 4.8 | 0.00 | 0.00 | 0.00 | 68 | 1013.6 |
| 20260509001602 | 22 | 43 | 0.0 | 3.2 | 0.00 | 0.00 | 0.00 | 67 | 1013.5 |
| 20260509000601 | 22 | 43 | 1.6 | 4.8 | 0.00 | 0.00 | 0.00 | 68 | 1013.6 |
| 20260509000106 | 23 | 14 | 1.6 | 4.8 | 0.00 | 0.00 | 0.00 | 66 | 1013.6 |
| 20260508235102 | 23 | 53 | 1.6 | 4.8 | 0.00 | 0.00 | 0.00 | 65 | 1013.7 |
| 20260508234602 | 23 | 242 | 1.6 | 4.8 | 0.00 | 0.00 | 0.00 | 65 | 1013.7 |
| 20260508234102 | 23 | 171 | 1.6 | 6.4 | 0.00 | 0.00 | 0.00 | 64 | 1013.6 |
| 20260508233601 | 23 | 200 | 1.6 | 6.4 | 0.00 | 0.00 | 0.00 | 64 | 1013.6 |
| 20260508233100 | 23 | 45 | 3.2 | 8.0 | 0.00 | 0.00 | 0.00 | 65 | 1013.6 |
| 20260508232606 | 22 | 296 | 4.8 | 11.3 | 0.00 | 0.00 | 0.00 | 64 | 1013.7 |
| 20260508232602 | 23 | 313 | 3.2 | 11.3 | 0.00 | 0.00 | 0.00 | 62 | 1013.6 |
| 20260508231601 | 23 | 286 | 4.8 | 11.3 | 0.00 | 0.00 | 0.00 | 63 | 1013.7 |
| 20260508231059 | 23 | 267 | 3.2 | 11.3 | 0.00 | 0.00 | 0.00 | 61 | 1013.7 |
| 20260508230602 | 24 | 316 | 1.6 | 8.0 | 0.00 | 0.00 | 0.00 | 60 | 1013.8 |
| 20260508230100 | 24 | 237 | 1.6 | 8.0 | 0.00 | 0.00 | 0.00 | 62 | 1013.9 |
| 20260508225602 | 25 | 118 | 1.6 | 6.4 | 0.00 | 0.00 | 0.00 | 61 | 1013.9 |
| 20260508225100 | 24 | 98 | 0.0 | 4.8 | 0.00 | 0.00 | 0.00 | 62 | 1014.0 |
| 20260508224602 | 24 | 101 | 1.6 | 4.8 | 0.00 | 0.00 | 0.00 | 63 | 1014.0 |
| 20260508224058 | 24 | 161 | 1.6 | 6.4 | 0.00 | 0.00 | 0.00 | 63 | 1014.1 |
| 20260508223558 | 23 | 268 | 1.6 | 8.0 | 0.00 | 0.00 | 0.00 | 63 | 1014.1 |
| 20260508223058 | 24 | 43 | 1.6 | 8.0 | 0.00 | 0.00 | 0.00 | 65 | 1014.2 |
| 20260508222557 | 23 | 314 | 3.2 | 9.7 | 0.00 | 0.00 | 0.00 | 65 | 1014.2 |
| 20260508222102 | 23 | 340 | 3.2 | 9.7 | 0.00 | 0.00 | 0.00 | 67 | 1014.3 |
| 20260508222058 | 23 | 323 | 3.2 | 9.7 | 0.00 | 0.00 | 0.00 | 65 | 1014.3 |
| 20260508221057 | 23 | 14 | 3.2 | 9.7 | 0.00 | 0.00 | 0.00 | 67 | 1014.4 |
| 20260508220558 | 22 | 54 | 3.2 | 9.7 | 0.00 | 0.00 | 0.00 | 68 | 1014.4 |
| 20260508220058 | 21 | 19 | 3.2 | 9.7 | 0.00 | 0.00 | 0.00 | 73 | 1014.4 |
| 20260508215557 | 20 | 315 | 4.8 | 12.9 | 0.00 | 0.00 | 0.00 | 74 | 1014.5 |
| 20260508215102 | 20 | 259 | 4.8 | 16.1 | 0.00 | 0.00 | 0.00 | 74 | 1014.6 |
| 20260508215058 | 20 | 293 | 4.8 | 12.9 | 0.00 | 0.00 | 0.00 | 75 | 1014.6 |
| 20260508214058 | 20 | 253 | 4.8 | 16.1 | 0.00 | 0.00 | 0.00 | 72 | 1014.8 |
| 20260508213557 | 21 | 269 | 6.4 | 16.1 | 0.00 | 0.00 | 0.00 | 70 | 1014.8 |
| 20260508213057 | 21 | 265 | 4.8 | 16.1 | 0.00 | 0.00 | 0.00 | 70 | 1014.8 |
| 20260508212557 | 21 | 304 | 4.8 | 12.9 | 0.00 | 0.00 | 0.00 | 70 | 1014.9 |
| 20260508212058 | 21 | 263 | 4.8 | 12.9 | 0.00 | 0.00 | 0.00 | 70 | 1014.9 |
| 20260508211556 | 22 | 271 | 3.2 | 11.3 | 0.00 | 0.00 | 0.00 | 68 | 1014.9 |
| 20260508211055 | 22 | 275 | 3.2 | 9.7 | 0.00 | 0.00 | 0.00 | 66 | 1015.0 |
| 20260508210556 | 23 | 319 | 1.6 | 8.0 | 0.00 | 0.00 | 0.00 | 67 | 1015.0 |
| 20260508210055 | 23 | 320 | 1.6 | 8.0 | 0.00 | 0.00 | 0.00 | 68 | 1015.1 |
| 20260508205555 | 22 | 329 | 3.2 | 11.3 | 0.00 | 0.00 | 0.00 | 68 | 1015.1 |
| 20260508205056 | 22 | 37 | 4.8 | 11.3 | 0.00 | 0.00 | 0.00 | 70 | 1015.1 |
| 20260508204556 | 22 | 30 | 3.2 | 12.9 | 0.00 | 0.00 | 0.00 | 71 | 1015.2 |
| 20260508204100 | 21 | 9 | 4.8 | 14.5 | 0.00 | 0.00 | 0.00 | 73 | 1015.2 |
| 20260508204056 | 21 | 71 | 3.2 | 12.9 | 0.00 | 0.00 | 0.00 | 72 | 1015.2 |
| 20260508203100 | 21 | 345 | 3.2 | 12.9 | 0.00 | 0.00 | 0.00 | 76 | 1015.3 |
| 20260508203056 | 21 | 309 | 6.4 | 14.5 | 0.00 | 0.00 | 0.00 | 73 | 1015.3 |
| 20260508202055 | 19 | 291 | 3.2 | 12.9 | 0.00 | 0.00 | 0.00 | 78 | 1015.3 |
| 20260508201555 | 19 | 266 | 3.2 | 12.9 | 0.00 | 0.00 | 0.00 | 79 | 1015.3 |
| 20260508201055 | 18 | 265 | 3.2 | 9.7 | 0.00 | 0.00 | 0.00 | 81 | 1015.4 |
| 20260508200602 | 18 | 239 | 3.2 | 8.0 | 0.00 | 0.00 | 0.00 | 79 | 1015.5 |
| 20260508200556 | 18 | 254 | 3.2 | 9.7 | 0.00 | 0.00 | 0.00 | 81 | 1015.4 |
| 20260508195555 | 19 | 247 | 1.6 | 8.0 | 0.00 | 0.00 | 0.00 | 76 | 1015.4 |
| 20260508195053 | 20 | 213 | 3.2 | 14.5 | 0.00 | 0.00 | 0.00 | 75 | 1015.5 |
| 20260508194554 | 20 | 196 | 4.8 | 14.5 | 0.00 | 0.00 | 0.00 | 73 | 1015.5 |
| 20260508194053 | 20 | 30 | 4.8 | 14.5 | 0.00 | 0.00 | 0.00 | 73 | 1015.5 |
| 20260508193553 | 20 | 9 | 3.2 | 14.5 | 0.00 | 0.00 | 0.00 | 73 | 1015.6 |
| 20260508193056 | 20 | 292 | 1.6 | 11.3 | 0.00 | 0.00 | 0.00 | 76 | 1015.6 |
| 20260508193052 | 19 | 92 | 1.6 | 8.0 | 0.00 | 0.00 | 0.00 | 77 | 1015.7 |
| 20260508192056 | 19 | 144 | 1.6 | 16.1 | 0.00 | 0.00 | 0.00 | 76 | 1015.8 |
| 20260508192051 | 19 | 209 | 1.6 | 6.4 | 0.00 | 0.00 | 0.00 | 77 | 1015.7 |
| 20260508191551 | 19 | 78 | 1.6 | 16.1 | 0.00 | 0.00 | 0.00 | 77 | 1015.8 |
| 20260508190549 | 20 | 220 | 3.2 | 16.1 | 0.00 | 0.00 | 0.00 | 75 | 1015.8 |
| 20260508190047 | 20 | 97 | 4.8 | 16.1 | 0.00 | 0.00 | 0.00 | 76 | 1015.8 |
| 20260508185547 | 20 | 5 | 4.8 | 12.9 | 0.00 | 0.00 | 0.00 | 77 | 1015.8 |
| 20260508185055 | 19 | 5 | 3.2 | 11.3 | 0.00 | 0.00 | 0.00 | 77 | 1015.9 |
| 20260508185048 | 19 | 93 | 3.2 | 9.7 | 0.00 | 0.00 | 0.00 | 77 | 1015.8 |
| 20260508184047 | 19 | 65 | 3.2 | 11.3 | 0.00 | 0.00 | 0.00 | 78 | 1015.9 |
| 20260508183547 | 18 | 157 | 3.2 | 11.3 | 0.00 | 0.00 | 0.00 | 79 | 1015.9 |
| 20260508183047 | 18 | 91 | 3.2 | 11.3 | 0.00 | 0.00 | 0.00 | 80 | 1015.9 |
| 20260508182545 | 18 | 81 | 4.8 | 14.5 | 0.00 | 0.00 | 0.00 | 80 | 1015.9 |
| 20260508182044 | 18 | 25 | 4.8 | 14.5 | 0.00 | 0.00 | 0.00 | 81 | 1015.9 |
| 20260508181543 | 18 | 5 | 4.8 | 19.3 | 0.00 | 0.00 | 0.00 | 82 | 1015.8 |
| 20260508181043 | 18 | 108 | 3.2 | 19.3 | 0.00 | 0.00 | 0.00 | 82 | 1015.9 |
| 20260508180543 | 18 | 207 | 1.6 | 9.7 | 0.00 | 0.00 | 0.00 | 81 | 1015.9 |
| 20260508180043 | 18 | 132 | 1.6 | 11.3 | 0.00 | 0.00 | 0.00 | 81 | 1015.9 |
| 20260508175543 | 18 | 83 | 1.6 | 11.3 | 0.00 | 0.00 | 0.00 | 82 | 1016.0 |
| 20260508175047 | 17 | 107 | 1.6 | 14.5 | 0.00 | 0.00 | 0.00 | 85 | 1015.9 |
| 20260508175043 | 17 | 150 | 1.6 | 14.5 | 0.00 | 0.00 | 0.00 | 83 | 1016.0 |
| 20260508174043 | 17 | 130 | 0.0 | 4.8 | 0.00 | 0.00 | 0.00 | 85 | 1016.0 |
| 20260508173547 | 16 | 169 | 1.6 | 6.4 | 0.00 | 0.00 | 0.00 | 87 | 1016.0 |
| 20260508173543 | 16 | 181 | 1.6 | 6.4 | 0.00 | 0.00 | 0.00 | 86 | 1016.2 |
| 20260508172541 | 16 | 202 | 1.6 | 4.8 | 0.00 | 0.00 | 0.00 | 88 | 1016.0 |
| 20260508172041 | 15 | 202 | 1.6 | 4.8 | 0.00 | 0.00 | 0.00 | 88 | 1016.2 |
| 20260508171541 | 15 | 195 | 1.6 | 6.4 | 0.00 | 0.00 | 0.00 | 88 | 1016.0 |
| 20260508171041 | 15 | 204 | 1.6 | 6.4 | 0.00 | 0.00 | 0.00 | 87 | 1016.0 |
| 20260508170541 | 15 | 206 | 1.6 | 6.4 | 0.00 | 0.00 | 0.00 | 87 | 1016.0 |
| 20260508170041 | 15 | 178 | 1.6 | 6.4 | 0.00 | 0.00 | 0.00 | 88 | 1015.9 |
| 20260508165541 | 15 | 186 | 1.6 | 6.4 | 0.00 | 0.00 | 0.00 | 88 | 1016.0 |
| 20260508165041 | 15 | 195 | 1.6 | 4.8 | 0.00 | 0.00 | 0.00 | 88 | 1015.9 |
| 20260508164541 | 15 | 178 | 1.6 | 4.8 | 0.00 | 0.00 | 0.00 | 88 | 1015.9 |
| 20260508164042 | 15 | 214 | 1.6 | 4.8 | 0.00 | 0.00 | 0.00 | 88 | 1015.9 |
| 20260508163543 | 16 | 232 | 1.6 | 6.4 | 0.00 | 0.00 | 0.00 | 83 | 1015.9 |
| 20260508163539 | 15 | 213 | 3.2 | 6.4 | 0.00 | 0.00 | 0.00 | 86 | 1015.9 |
| 20260508162539 | 16 | 205 | 1.6 | 6.4 | 0.00 | 0.00 | 0.00 | 80 | 1015.9 |
| 20260508162043 | 18 | 130 | 0.0 | 3.2 | 0.00 | 0.00 | 0.00 | 77 | 1015.8 |
| 20260508162039 | 17 | 184 | 1.6 | 6.4 | 0.00 | 0.00 | 0.00 | 77 | 1015.9 |
| 20260508161642 | 18 | 189 | 0.0 | 6.4 | 0.00 | 0.00 | 0.00 | 76 | 1015.8 |
| 20260508161142 | 18 | 200 | 0.0 | 3.2 | 0.00 | 0.00 | 0.00 | 75 | 1015.8 |
| 20260508160037 | 18 | 130 | 0.0 | 4.8 | 0.00 | 0.00 | 0.00 | 78 | 1015.8 |
| 20260508155537 | 18 | 142 | 0.0 | 4.8 | 0.00 | 0.00 | 0.00 | 77 | 1015.8 |
| 20260508155041 | 18 | 89 | 0.0 | 4.8 | 0.00 | 0.00 | 0.00 | 78 | 1015.7 |
| 20260508155037 | 18 | 175 | 1.6 | 4.8 | 0.00 | 0.00 | 0.00 | 77 | 1015.8 |
| 20260508154037 | 18 | 40 | 0.0 | 3.2 | 0.00 | 0.00 | 0.00 | 79 | 1015.7 |
| 20260508153537 | 17 | 40 | 0.0 | 3.2 | 0.00 | 0.00 | 0.00 | 80 | 1015.8 |
| 20260508153037 | 17 | 5 | 0.0 | 3.2 | 0.00 | 0.00 | 0.00 | 79 | 1015.8 |
| 20260508152537 | 17 | 192 | 0.0 | 3.2 | 0.00 | 0.00 | 0.00 | 78 | 1015.7 |
| 20260508152037 | 17 | 0 | 0.0 | 1.6 | 0.00 | 0.00 | 0.00 | 78 | 1015.8 |
| 20260508151537 | 17 | 0 | 0.0 | 1.6 | 0.00 | 0.00 | 0.00 | 79 | 1015.9 |
| 20260508151041 | 16 | 0 | 0.0 | 4.8 | 0.00 | 0.00 | 0.00 | 80 | 1015.8 |
| 20260508151037 | 16 | 0 | 0.0 | 4.8 | 0.00 | 0.00 | 0.00 | 78 | 1015.8 |
| 20260508150036 | 16 | 0 | 3.2 | 6.4 | 0.00 | 0.00 | 0.00 | 76 | 1015.9 |
| 20260508145541 | 16 | 49 | 3.2 | 6.4 | 0.00 | 0.00 | 0.00 | 78 | 1015.7 |
| 20260508145536 | 16 | 0 | 4.8 | 6.4 | 0.00 | 0.00 | 0.00 | 78 | 1015.7 |
| 20260508144538 | 16 | 49 | 1.6 | 6.4 | 0.00 | 0.00 | 0.00 | 77 | 1015.8 |
| 20260508144037 | 16 | 49 | 1.6 | 4.8 | 0.00 | 0.00 | 0.00 | 79 | 1015.8 |
| 20260508143536 | 16 | 49 | 3.2 | 4.8 | 0.00 | 0.00 | 0.00 | 77 | 1015.8 |
| 20260508143037 | 16 | 49 | 1.6 | 4.8 | 0.00 | 0.00 | 0.00 | 76 | 1015.8 |
| 20260508142534 | 16 | 49 | 1.6 | 4.8 | 0.00 | 0.00 | 0.00 | 78 | 1015.8 |
| 20260508142035 | 17 | 49 | 0.0 | 3.2 | 0.00 | 0.00 | 0.00 | 74 | 1015.8 |
| 20260508141536 | 17 | 49 | 1.6 | 3.2 | 0.00 | 0.00 | 0.00 | 74 | 1015.8 |
| 20260508141036 | 16 | 49 | 1.6 | 3.2 | 0.00 | 0.00 | 0.00 | 74 | 1015.8 |
| 20260508140536 | 16 | 49 | 0.0 | 4.8 | 0.00 | 0.00 | 0.00 | 76 | 1015.7 |
| 20260508140035 | 16 | 49 | 0.0 | 4.8 | 0.00 | 0.00 | 0.00 | 76 | 1015.7 |
| 20260508135536 | 16 | 192 | 0.0 | 3.2 | 0.00 | 0.00 | 0.00 | 76 | 1015.7 |
| 20260508135036 | 16 | 192 | 0.0 | 3.2 | 0.00 | 0.00 | 0.00 | 76 | 1015.7 |
| 20260508134540 | 16 | 94 | 1.6 | 3.2 | 0.00 | 0.00 | 0.00 | 76 | 1015.5 |
| 20260508134536 | 16 | 94 | 0.0 | 1.6 | 0.00 | 0.00 | 0.00 | 76 | 1015.6 |
| 20260508133535 | 16 | 94 | 1.6 | 3.2 | 0.00 | 0.00 | 0.00 | 76 | 1015.6 |
| 20260508133040 | 16 | 94 | 0.0 | 1.6 | 0.00 | 0.00 | 0.00 | 78 | 1015.6 |
| 20260508133035 | 16 | 94 | 0.0 | 3.2 | 0.00 | 0.00 | 0.00 | 77 | 1015.5 |
| 20260508132644 | 15 | 94 | 0.0 | 3.2 | 0.00 | 0.00 | 0.00 | 78 | 1015.5 |
| 20260508131536 | 16 | 94 | 0.0 | 3.2 | 0.00 | 0.00 | 0.00 | 78 | 1015.4 |
| 20260508131036 | 16 | 94 | 1.6 | 3.2 | 0.00 | 0.00 | 0.00 | 77 | 1015.4 |
| 20260508130540 | 16 | 94 | 0.0 | 1.6 | 0.00 | 0.00 | 0.00 | 77 | 1015.3 |
| 20260508130536 | 16 | 94 | 1.6 | 3.2 | 0.00 | 0.00 | 0.00 | 77 | 1015.3 |
| 20260508125535 | 16 | 94 | 0.0 | 0.0 | 0.00 | 0.00 | 0.00 | 77 | 1015.4 |
| 20260508125036 | 16 | 94 | 0.0 | 0.0 | 0.00 | 0.00 | 0.00 | 76 | 1015.4 |
| 20260508124534 | 16 | 94 | 0.0 | 0.0 | 0.00 | 0.00 | 0.00 | 76 | 1015.3 |
| 20260508124033 | 16 | 94 | 0.0 | 3.2 | 0.00 | 0.00 | 0.00 | 76 | 1015.3 |
| 20260508123531 | 16 | 94 | 0.0 | 3.2 | 0.00 | 0.00 | 0.00 | 76 | 1015.3 |
| 20260508123036 | 16 | 94 | 0.0 | 3.2 | 0.00 | 0.00 | 0.00 | 76 | 1015.3 |
| 20260508123031 | 16 | 94 | 0.0 | 3.2 | 0.00 | 0.00 | 0.00 | 78 | 1015.2 |
| 20260508122028 | 16 | 94 | 0.0 | 3.2 | 0.00 | 0.00 | 0.00 | 78 | 1015.2 |
| 20260508121526 | 16 | 94 | 0.0 | 3.2 | 0.00 | 0.00 | 0.00 | 79 | 1015.2 |
| 20260508121026 | 16 | 94 | 0.0 | 3.2 | 0.00 | 0.00 | 0.00 | 79 | 1015.1 |
| 20260508120526 | 15 | 94 | 0.0 | 1.6 | 0.00 | 0.00 | 0.00 | 77 | 1015.1 |
| 20260508120026 | 15 | 94 | 0.0 | 1.6 | 0.00 | 0.00 | 0.00 | 79 | 1015.1 |
| 20260508115526 | 15 | 94 | 0.0 | 1.6 | 0.00 | 0.00 | 0.00 | 80 | 1015.1 |
| 20260508115026 | 15 | 94 | 0.0 | 3.2 | 0.00 | 0.00 | 0.00 | 79 | 1015.1 |
| 20260508114526 | 15 | 94 | 1.6 | 3.2 | 0.00 | 0.00 | 0.00 | 82 | 1015.1 |
| 20260508114026 | 15 | 94 | 1.6 | 3.2 | 0.00 | 0.00 | 0.00 | 80 | 1015.1 |
| 20260508113526 | 15 | 94 | 1.6 | 3.2 | 0.00 | 0.00 | 0.00 | 81 | 1015.1 |
| 20260508113031 | 15 | 264 | 0.0 | 4.8 | 0.00 | 0.00 | 0.00 | 82 | 1015.1 |
| 20260508113025 | 15 | 84 | 1.6 | 3.2 | 0.00 | 0.00 | 0.00 | 82 | 1015.1 |
| 20260508112024 | 15 | 249 | 1.6 | 4.8 | 0.00 | 0.00 | 0.00 | 82 | 1015.1 |
| 20260508111523 | 15 | 200 | 1.6 | 4.8 | 0.00 | 0.00 | 0.00 | 82 | 1015.1 |
| 20260508111022 | 15 | 189 | 1.6 | 4.8 | 0.00 | 0.00 | 0.00 | 81 | 1015.1 |
| 20260508110522 | 15 | 202 | 1.6 | 3.2 | 0.00 | 0.00 | 0.00 | 80 | 1015.1 |
| 20260508110022 | 15 | 191 | 1.6 | 4.8 | 0.00 | 0.00 | 0.00 | 81 | 1015.1 |
| 20260508105523 | 15 | 180 | 3.2 | 6.4 | 0.00 | 0.00 | 0.00 | 82 | 1015.0 |
| 20260508105022 | 15 | 130 | 1.6 | 6.4 | 0.00 | 0.00 | 0.00 | 81 | 1015.0 |
| 20260508104521 | 15 | 19 | 3.2 | 6.4 | 0.00 | 0.00 | 0.00 | 80 | 1015.0 |
| 20260508104022 | 15 | 35 | 3.2 | 6.4 | 0.00 | 0.00 | 0.00 | 82 | 1015.1 |
| 20260508103520 | 15 | 67 | 1.6 | 4.8 | 0.00 | 0.00 | 0.00 | 80 | 1015.2 |
| 20260508103020 | 15 | 67 | 3.2 | 6.4 | 0.00 | 0.00 | 0.00 | 80 | 1015.1 |
| 20260508102520 | 15 | 45 | 4.8 | 8.0 | 0.00 | 0.00 | 0.00 | 80 | 1015.0 |
| 20260508102020 | 15 | 55 | 4.8 | 8.0 | 0.00 | 0.00 | 0.00 | 80 | 1015.0 |
| 20260508101520 | 15 | 33 | 6.4 | 9.7 | 0.00 | 0.00 | 0.00 | 80 | 1015.0 |
| 20260508101020 | 15 | 38 | 6.4 | 9.7 | 0.00 | 0.00 | 0.00 | 81 | 1015.2 |
| 20260508100520 | 14 | 43 | 4.8 | 8.0 | 0.00 | 0.00 | 0.00 | 81 | 1015.1 |
| 20260508100024 | 14 | 55 | 1.6 | 8.0 | 0.00 | 0.00 | 0.00 | 83 | 1015.1 |
| 20260508100020 | 14 | 74 | 3.2 | 8.0 | 0.00 | 0.00 | 0.00 | 83 | 1015.1 |
| 20260508095628 | 14 | 25 | 3.2 | 8.0 | 0.00 | 0.00 | 0.00 | 84 | 1015.2 |
| 20260508094522 | 14 | 355 | 8.0 | 12.9 | 0.00 | 0.00 | 0.00 | 84 | 1015.1 |
| 20260508094518 | 14 | 310 | 6.4 | 9.7 | 0.00 | 0.00 | 0.00 | 84 | 1015.1 |
| 20260508094125 | 14 | 315 | 9.7 | 14.5 | 0.00 | 0.00 | 0.00 | 84 | 1015.2 |
| 20260508093020 | 14 | 355 | 9.7 | 14.5 | 0.00 | 0.00 | 0.00 | 84 | 1015.1 |
| 20260508093016 | 14 | 29 | 9.7 | 12.9 | 0.00 | 0.00 | 0.00 | 84 | 1015.1 |
| 20260508092016 | 14 | 42 | 9.7 | 12.9 | 0.00 | 0.00 | 0.00 | 84 | 1015.2 |
| 20260508091516 | 14 | 24 | 8.0 | 12.9 | 0.00 | 0.00 | 0.00 | 82 | 1015.1 |
| 20260508091016 | 15 | 29 | 6.4 | 9.7 | 0.00 | 0.00 | 0.00 | 78 | 1015.2 |
| 20260508090513 | 16 | 20 | 6.4 | 11.3 | 0.00 | 0.00 | 0.00 | 76 | 1015.1 |
| 20260508090013 | 16 | 20 | 6.4 | 11.3 | 0.00 | 0.00 | 0.00 | 76 | 1015.2 |
| 20260508085517 | 16 | 11 | 4.8 | 8.0 | 0.00 | 0.00 | 0.00 | 76 | 1015.3 |
| 20260508085513 | 16 | 20 | 6.4 | 8.0 | 0.00 | 0.00 | 0.00 | 77 | 1015.3 |
| 20260508084515 | 16 | 253 | 1.6 | 4.8 | 0.00 | 0.00 | 0.00 | 76 | 1015.3 |
| 20260508084511 | 16 | 18 | 3.2 | 6.4 | 0.00 | 0.00 | 0.00 | 76 | 1015.3 |
| 20260508083511 | 16 | 263 | 1.6 | 3.2 | 0.00 | 0.00 | 0.00 | 76 | 1015.4 |